{"data":{"norad_id":47793,"intl_designator":"2021-018G","name":"STARLINK-2338","alt_names":[],"object_type":"PAYLOAD","status":"ACTIVE","operator":null,"country":"US","launch_date":"2021-03-11","launch_site_code":"AFETR","launch_vehicle":null,"mission":null,"orbit_class":"UNKNOWN","rcs_meters":null,"size_class":null,"mass_kg":null,"dimensions":null,"purposes":["comms"],"wikipedia_slug":null,"has_3d_model":false,"image_url":null,"decayed_at":null,"tle_current":{"epoch":"2026-05-24T23:49:30.413568Z","epoch_age_seconds":69589,"freshness":"FRESH","line1":"1 47793U 21018G   26144.99271312  .00012684  00000+0  41974-3 0  9991","line2":"2 47793  53.1614 244.2517 0000889  84.3178 275.7925 15.31703258288441","mean_motion":15.31703258,"eccentricity":8.89e-5,"inclination_deg":53.1614,"raan_deg":244.2517,"arg_perigee_deg":84.3178,"mean_anomaly_deg":275.7925,"bstar":0.00041974,"rev_number":28844,"period_min":94.012987990915,"perigee_km":470.12141901291,"apogee_km":471.33914761588,"semimajor_km":6848.8672833144,"source":"CELESTRAK","updated_at":"2026-05-25T13:38:16.598707Z"}}}